Flock 4g-2

operational
NORAD ID: 62661 Int'l Des: 2025-009 Owner: PLAN Country: US Constellation: planet
LEOCIRCULARRETROGRADESSO

About Flock 4g-2

Description loading...

Live Position

Loading 3D Globe...

Upcoming Passes

Altitude History

Altitude vs Time

uPlot chart will show altitude changes over time

Two-Line Element Set

1 62661U 25009BE 25314.18500563 .00014126 00000-0 58263-3 0 9991
2 62661 97.4208 32.7239 0004899 33.1118 327.0425 15.24159231103107
Epoch: Nov 10, 2025 • Age: 33 hours

Current Status

Altitude 503.5 km
Velocity 7.62 km/s
Sub-Earth Point 73.59°N, 109.19°E
Launch Date Jan 14, 2025
Age 0.8 years
Type earth observation

Technical Details

Classification Payload
Mass 5.70 kg
Dry Mass 5.70 kg
Total Mass 5.70 kg
Length 0.30 m
Diameter 0.10 m
Span 0.30 m
Shape Box+2 pan
Manufacturer PLAN
Bus Type Cubesat 3U
Phase Status In Orbit
Owner/State PLAN/US

Large Constellations

Loading constellations...